This demonstration page uses our WeatherBlox Daily Observations layout. Learn more.

Left ArrowRight Arrow

44.8408, -93.29828

Hourly Observations for September 14, 2021

Temp ( °F °C ) Dew Point ( °F °C ) Humidity (%) Winds ( mph kmh ) Pressure ( in mb ) Visibility ( mi km ) Precip ( " mm )
12:10 am 00:10 Cloudy with Light Rain 67 19.4 63 17.2 87 87 SW 21 33 29.66 1004 7 11 0.00 0.00
12:17 am 00:17 Cloudy with Light Rain 66 18.9 61 16.1 84 84 SW 18 30 29.66 1004 10 16 0.00 0.00
12:32 am 00:32 Cloudy with Light Rain 65 18.3 61 16.1 87 87 SW 13 20 29.66 1005 10 16 0.00 0.00
12:42 am 00:42 Cloudy 64 17.8 62 16.7 93 93 SW 15 24 29.67 1005 10 16 0.00 0.00
12:53 am 00:53 Cloudy 64 17.8 61 16.1 90 90 SW 16 26 29.67 1005 10 16 0.00 0.00
1:53 am 01:53 Cloudy 63 17.2 61 16.1 93 93 W 12 19 29.68 1005 10 16 0.00 0.00
2:53 am 02:53 Cloudy 62 16.7 58 14.4 86 86 W 16 26 29.70 1006 10 16 0.00 0.00
3:20 am 03:20 Mostly Cloudy 62 16.7 58 14.4 86 86 W 18 30 29.71 1006 10 16 0.00 0.00
3:53 am 03:53 Cloudy 61 16.1 57 13.9 87 87 W 15 24 29.72 1007 10 16 0.00 0.00
4:21 am 04:21 Cloudy 61 16.1 57 13.9 87 87 WNW 15 24 29.73 1007 10 16 0.00 0.00
4:53 am 04:53 Cloudy 61 16.1 57 13.9 87 87 WNW 14 22 29.75 1007 10 16 0.00 0.00
5:53 am 05:53 Cloudy 61 16.1 57 13.9 87 87 WNW 13 20 29.77 1008 10 16 0.00 0.00
6:53 am 06:53 Cloudy 61 16.1 57 13.9 87 87 NW 12 19 29.78 1009 10 16 0.00 0.00
7:10 am 07:10 Cloudy 61 16.1 56 13.3 84 84 WNW 13 20 29.79 1009 10 16 0.00 0.00
7:43 am 07:43 Cloudy 61 16.1 56 13.3 84 84 NW 18 30 29.82 1010 10 16 0.00 0.00
7:53 am 07:53 Cloudy 60 15.6 56 13.3 86 86 NW 16 26 29.83 1010 10 16 0.00 0.00
8:31 am 08:31 Cloudy 61 16.1 56 13.3 84 84 NW 15 24 29.83 1010 10 16 0.00 0.00
8:44 am 08:44 Cloudy 61 16.1 56 13.3 84 84 NW 14 22 29.83 1010 10 16 0.00 0.00
8:53 am 08:53 Cloudy 61 16.1 56 13.3 84 84 NW 13 20 29.83 1010 10 16 0.00 0.00
9:02 am 09:02 Cloudy 61 16.1 56 13.3 84 84 NW 16 26 29.83 1010 10 16 0.00 0.00
9:35 am 09:35 Cloudy 62 16.7 56 13.3 80 80 NNW 15 24 29.84 1010 10 16 0.00 0.00
9:53 am 09:53 Cloudy 62 16.7 55 12.8 78 78 NW 14 22 29.85 1011 10 16 0.00 0.00
10:53 am 10:53 Cloudy 63 17.2 55 12.8 76 76 WNW 14 22 29.87 1012 10 16 0.00 0.00
11:53 am 11:53 Mostly Cloudy 66 18.9 55 12.8 68 68 NNW 15 24 29.88 1012 10 16 0.00 0.00
12:26 pm 12:26 Cloudy 67 19.4 56 13.3 68 68 NW 14 22 29.88 1012 10 16 0.00 0.00
12:53 pm 12:53 Mostly Cloudy 67 19.4 56 13.3 68 68 WNW 9 15 29.88 1012 10 16 0.00 0.00
1:00 pm 13:00 Mostly Cloudy 68 20 57 13.9 68 68 NW 14 22 29.87 1011 10 16 0.00 0.00
1:09 pm 13:09 Mostly Cloudy 69 20.6 58 14.4 68 68 WNW 12 19 29.87 1011 10 16 0.00 0.00
1:53 pm 13:53 Mostly Cloudy 70 21.1 56 13.3 61 61 W 12 19 29.87 1012 10 16 0.00 0.00
2:53 pm 14:53 Mostly Cloudy 71 21.7 56 13.3 59 59 WNW 12 19 29.86 1011 10 16 0.00 0.00
3:53 pm 15:53 Mostly Cloudy 70 21.1 54 12.2 57 57 NW 12 19 29.88 1012 10 16 0.00 0.00
4:53 pm 16:53 Mostly Cloudy 71 21.7 52 11.1 51 51 W 12 19 29.88 1012 10 16 0.00 0.00
5:53 pm 17:53 Partly Cloudy 71 21.7 52 11.1 51 51 W 13 20 29.88 1012 10 16 0.00 0.00
6:53 pm 18:53 Partly Cloudy 69 20.6 52 11.1 55 55 W 9 15 29.89 1012 10 16 0.00 0.00
7:53 pm 19:53 Mostly Clear 66 18.9 47 8.3 50 50 WNW 6 9 29.91 1013 10 16 0.00 0.00
8:53 pm 20:53 Mostly Clear 66 18.9 47 8.3 50 50 W 7 11 29.92 1013 10 16 0.00 0.00
9:53 pm 21:53 Mostly Clear 62 16.7 48 8.9 60 60 WNW 6 9 29.93 1014 10 16 0.00 0.00
10:53 pm 22:53 Clear 61 16.1 49 9.4 65 65 WNW 3 6 29.94 1014 10 16 0.00 0.00
11:53 pm 23:53 Clear 59 15 49 9.4 69 69 Calm 29.95 1014 10 16 0.00 0.00

Powered by AerisWeather